User: anonymous
Location: Unspecified
(0.0000°N, 0.0000°E)
Time: 07:22:37
(UTC+02:00)
Language:

Delta 168 - Orbit

View from above orbital plane
View from above orbital plane
View from above satellite
View from above satellite

Ground track
Ground track

The orbit data is extracted from the following two-line orbital elements,

1 14051U 83041B   14292.91312183  .00011956  00000-0  11921-2 0  6347
2 14051 025.3296 137.2702 1124765 123.4096 004.3020 13.02185696451339
Epoch (UTC): 19 October 2014 21:54:53
Eccentricity: 0.1124765
inclination: 25.3296°
perigee height: 395 km
apogee height: 2112 km
right ascension of ascending node: 137.2702°
argument of perigee: 123.4096°
revolutions per day: 13.02185696
mean anomaly at epoch: 4.3020°
orbit number at epoch: 45133

The dashed part of the orbit path shows where the satellite is in the earth's shadow,  

DLR